STARLINK-34397

Last updated on Thu Jul 03 2025 00:02:06 GMT+0000 (Coordinated Universal Time)

1 64356U 25126N 25183.58335648 -.01401509 00000+0 -16933-1 0 9995 2 64356 69.9993 310.2118 0003275 267.9044 318.0706 15.63221888 4324
UTC large
Height (km)
Speed (km/s)
/
Latitude / Longitude
Inclination (degrees)
Orbital Period (minutes)
Azimuth
Elevation
Range (km)
Doppler Factor

Next 0 passes for location: London (51.5072 / 0.1276)

Sorry there are no passes over London.